sat.trackr.live / text

‹ back to catalog

STARLINK-33780

NORAD 63459 · 2025-069AC

PAYLOAD ACTIVE UNKNOWN

§ Identity

Operator
Country
US
Launch date
2025-04-04
Launch site
AFWTR
Launch vehicle
Mass (kg)
RCS (m²)

Purposes: comms

External: N2YO · Heavens-Above · Gunter

§ Orbital elements

Epoch: 2026-05-24T23:40:29.038080Z

Period
93.37 min
Inclination
53.1592°
Eccentricity
0.0001868
Mean motion
15.42190246 rev/d
Perigee alt
438.4 km
Apogee alt
440.9 km
Semi-major
6,817.8 km
B*
8.6345e-4
RAAN
145.4014°
Arg perigee
83.2811°
Mean anomaly
276.8407°
Rev number
6,501

§ Raw data

STARLINK-337801 63459U 25069AC  26144.98644720  .00037384  00000+0  86345-3 0  99992 63459  53.1592 145.4014 0001868  83.2811 276.8407 15.42190246 65019

JSON: /api/v1/satellites/63459 · /tle

For live sub-satellite position, see the globe view (requires WebGL).

§ Visibility from observer

Set your observer location to see the next 7 days of passes ≥ 10°. The values pass through the URL so the page stays shareable.

No JS? Fill the form by hand. The geolocation button needs JavaScript.